This is the latest recevied weather packets stored in our database for station/object KJ4EBE. If no packets are shown the sender has not sent any weather packets the latest 10 day(s).
| Time | Temp. | Humidity | Pressure | Rain* | Wind** | Luminosity | Snow |
|---|---|---|---|---|---|---|---|
| 1777931612 | 28.89° C | 57% | 1008.5 hPa | 0 mm | - | 456 W/m² | - |
| 1777931308 | 29.44° C | 57% | 1008.7 hPa | 0 mm | - | 463 W/m² | - |
| 1777931006 | 28.89° C | 57% | 1008.8 hPa | 0 mm | - | 472 W/m² | - |
| 1777930702 | 29.44° C | 58% | 1008.7 hPa | 0 mm | - | 466 W/m² | - |
| 1777930398 | 28.89° C | 58% | 1008.6 hPa | 0 mm | - | 485 W/m² | - |
| 1777930096 | 28.33° C | 59% | 1008.9 hPa | 0 mm | - | 500 W/m² | - |
| 1777929792 | 28.33° C | 59% | 1008.7 hPa | 0 mm | - | 501 W/m² | - |
| 1777929490 | 28.89° C | 59% | 1009 hPa | 0 mm | - | 517 W/m² | - |
| 1777929185 | 28.33° C | 59% | 1009 hPa | 0 mm | - | 578 W/m² | - |
| 1777928883 | 28.33° C | 60% | 1009.3 hPa | 0 mm | - | 584 W/m² | - |
| 1777928580 | 28.33° C | 59% | 1009.4 hPa | 0 mm | - | 644 W/m² | - |
| 1777928277 | 28.33° C | 60% | 1009.5 hPa | 0 mm | - | 653 W/m² | - |
| 1777927975 | 27.78° C | 61% | 1009.5 hPa | 0 mm | - | 600 W/m² | - |
| 1777927673 | 27.78° C | 60% | 1009.4 hPa | 0 mm | - | 545 W/m² | - |
| 1777927371 | 27.78° C | 60% | 1009.8 hPa | 0 mm | - | 337 W/m² | - |
| 1777927070 | 27.78° C | 61% | 1010 hPa | 0 mm | - | 601 W/m² | - |
| 1777926767 | 28.33° C | 60% | 1009.7 hPa | 0 mm | - | 455 W/m² | - |
| 1777926467 | 28.33° C | 59% | 1010 hPa | 0 mm | - | 670 W/m² | - |
| 1777926164 | 27.22° C | 63% | 1010 hPa | 0 mm | - | 560 W/m² | - |
| 1777925861 | 27.22° C | 63% | 1010.3 hPa | 0 mm | - | 582 W/m² | - |
| 1777925558 | 27.22° C | 62% | 1010.2 hPa | 0 mm | - | 440 W/m² | - |
| 1777925256 | 27.78° C | 62% | 1010.2 hPa | 0 mm | - | 541 W/m² | - |
| 1777924951 | 27.78° C | 60% | 1010.3 hPa | 0 mm | - | 656 W/m² | - |
| 1777924648 | 27.22° C | 64% | 1010.6 hPa | 0 mm | - | 565 W/m² | - |
| 1777924344 | 27.22° C | 63% | 1010.5 hPa | 0 mm | - | 552 W/m² | - |
* Rain latest hour (hover to see other rain measurements)
** Current wind speed in m/s (hover to see current wind gust speed)